Time,TemperatureF,DewpointF,PressureIn,WindDirection,WindDirectionDegrees,WindSpeedMPH,WindSpeedGustMPH,Humidity,HourlyPrecipIn,Conditions,Clouds,dailyrainin,SoftwareType,DateUTC
2013-03-10 00:02:00,31.0,-99.9,-100.00,West,271,0.0,0.0,-999,-99.99,,,-99.99,,2013-03-10 08:02:00,
2013-03-10 00:52:00,28.0,-99.9,-100.00,North,352,0.0,0.0,-999,-99.99,,,-99.99,,2013-03-10 08:52:00,
2013-03-10 01:02:00,28.0,-99.9,-100.00,North,352,0.0,0.0,-999,-99.99,,,-99.99,,2013-03-10 09:02:00,
2013-03-10 01:20:00,29.0,-99.9,-100.00,WSW,250,0.0,0.0,-999,-99.99,,,-99.99,,2013-03-10 09:20:00,
2013-03-10 03:11:00,29.0,-99.9,-100.00,WSW,250,0.0,0.0,-999,-99.99,,,-99.99,,2013-03-10 10:11:00,
2013-03-10 03:32:00,26.0,-99.9,-100.00,WNW,285,0.0,0.0,-999,-99.99,,,-99.99,,2013-03-10 10:32:00,
2013-03-10 03:52:00,26.0,-99.9,-100.00,WNW,285,0.0,0.0,-999,-99.99,,,-99.99,,2013-03-10 10:52:00,
2013-03-10 07:12:00,26.0,-99.9,-100.00,NE,35,0.0,0.0,-999,-99.99,,,-99.99,,2013-03-10 14:12:00,
2013-03-10 07:40:00,27.0,-99.9,-100.00,East,98,0.0,0.0,-999,-99.99,,,-99.99,,2013-03-10 14:40:00,
2013-03-10 07:42:00,23.0,-99.9,-100.00,ENE,67,0.0,0.0,-999,-99.99,,,-99.99,,2013-03-10 14:42:00,
2013-03-10 07:52:00,23.0,-99.9,-100.00,ENE,67,0.0,0.0,-999,-99.99,,,-99.99,,2013-03-10 14:52:00,
2013-03-10 08:21:00,27.0,-99.9,-100.00,East,98,0.0,0.0,-999,-99.99,,,-99.99,,2013-03-10 15:21:00,
2013-03-10 08:32:00,27.0,-99.9,-100.00,East,98,0.0,0.0,-999,-99.99,,,-99.99,,2013-03-10 15:32:00,
2013-03-10 11:10:00,54.0,-99.9,-100.00,NE,54,0.0,0.0,-999,-99.99,,,-99.99,,2013-03-10 18:10:00,
2013-03-10 11:50:00,56.0,-99.9,-100.00,East,98,0.0,0.0,-999,-99.99,,,-99.99,,2013-03-10 18:50:00,
2013-03-10 11:53:00,54.0,-99.9,-100.00,NE,54,0.0,0.0,-999,-99.99,,,-99.99,,2013-03-10 18:53:00,
2013-03-10 12:02:00,54.0,-99.9,-100.00,NE,54,0.0,0.0,-999,-99.99,,,-99.99,,2013-03-10 19:02:00,
2013-03-10 12:32:00,56.0,-99.9,-100.00,East,98,0.0,0.0,-999,-99.99,,,-99.99,,2013-03-10 19:32:00,
2013-03-10 12:42:00,56.0,-99.9,-100.00,East,98,0.0,0.0,-999,-99.99,,,-99.99,,2013-03-10 19:42:00,
2013-03-10 13:02:00,56.0,-99.9,-100.00,ENE,60,0.0,0.0,-999,-99.99,,,-99.99,,2013-03-10 20:02:00,
2013-03-10 13:13:00,56.0,-99.9,-100.00,ENE,60,0.0,0.0,-999,-99.99,,,-99.99,,2013-03-10 20:13:00,
2013-03-10 13:22:00,56.0,-99.9,-100.00,ENE,60,0.0,0.0,-999,-99.99,,,-99.99,,2013-03-10 20:22:00,
2013-03-10 14:23:00,58.0,-99.9,-100.00,ESE,110,0.0,0.0,-999,-99.99,,,-99.99,,2013-03-10 21:23:00,
2013-03-10 14:33:00,58.0,-99.9,-100.00,ESE,110,0.0,0.0,-999,-99.99,,,-99.99,,2013-03-10 21:33:00,
2013-03-10 16:20:00,62.0,-99.9,-100.00,SW,222,0.0,0.0,-999,-99.99,,,-99.99,,2013-03-10 23:20:00,
2013-03-10 16:23:00,65.0,-99.9,-100.00,WSW,248,0.0,0.0,-999,-99.99,,,-99.99,,2013-03-10 23:23:00,
2013-03-10 16:53:00,63.0,-99.9,-100.00,SW,230,0.0,0.0,-999,-99.99,,,-99.99,,2013-03-10 23:53:00,
2013-03-10 17:03:00,62.0,-99.9,-100.00,SW,222,0.0,0.0,-999,-99.99,,,-99.99,,2013-03-11 00:03:00,
2013-03-10 17:13:00,62.0,-99.9,-100.00,SW,222,0.0,0.0,-999,-99.99,,,-99.99,,2013-03-11 00:13:00,
2013-03-10 18:03:00,58.0,-99.9,-100.00,SW,224,0.0,0.0,-999,-99.99,,,-99.99,,2013-03-11 01:03:00,
2013-03-10 18:13:00,58.0,-99.9,-100.00,SW,224,0.0,0.0,-999,-99.99,,,-99.99,,2013-03-11 01:13:00,
2013-03-10 18:23:00,58.0,-99.9,-100.00,SW,224,0.0,0.0,-999,-99.99,,,-99.99,,2013-03-11 01:23:00,
2013-03-10 18:33:00,55.0,-99.9,-100.00,SW,225,0.0,0.0,-999,-99.99,,,-99.99,,2013-03-11 01:33:00,
2013-03-10 18:43:00,55.0,-99.9,-100.00,SW,225,0.0,0.0,-999,-99.99,,,-99.99,,2013-03-11 01:43:00,
2013-03-10 20:10:00,44.0,-99.9,-100.00,NW,323,0.0,0.0,-999,-99.99,,,-99.99,,2013-03-11 03:10:00,
2013-03-10 20:53:00,44.0,-99.9,-100.00,NW,323,0.0,0.0,-999,-99.99,,,-99.99,,2013-03-11 03:53:00,
2013-03-10 21:00:00,42.0,-99.9,-100.00,WSW,251,0.0,0.0,-999,-99.99,,,-99.99,,2013-03-11 04:00:00,
2013-03-10 21:03:00,44.0,-99.9,-100.00,NW,323,0.0,0.0,-999,-99.99,,,-99.99,,2013-03-11 04:03:00,
2013-03-10 21:53:00,42.0,-99.9,-100.00,WSW,251,0.0,0.0,-999,-99.99,,,-99.99,,2013-03-11 04:53:00,
2013-03-10 23:53:00,33.0,-99.9,-100.00,WNW,294,0.0,0.0,-999,-99.99,,,-99.99,,2013-03-11 06:53:00,